KC5TIL-3 Weather Reports


Display with metric or nautical units.
time (UTC)temp
F
wind
direction
speed
MPH
gust
MPH
rain 1hr
in
rain 24hr
in
rain mn
in
humidity
%
barometer
mb
20260906230111 97 127 8.0 14.0 0.00 0.00 0.00 16 1007.8
20260906225610 97 121 6.0 13.0 0.00 0.00 0.00 16 1007.8
20260906225112 97 132 8.0 13.0 0.00 0.00 0.00 16 1007.8
20260906224613 97 116 11.0 12.0 0.00 0.00 0.00 16 1007.8
20260906224112 97 150 7.0 10.0 0.00 0.00 0.00 15 1007.8
20260906223614 98 98 7.0 12.0 0.00 0.00 0.00 15 1007.8
20260906223116 97 131 7.0 10.0 0.00 0.00 0.00 16 1008.8
20260906222614 97 133 10.0 15.0 0.00 0.00 0.00 16 1008.8
20260906222116 97 98 10.0 13.0 0.00 0.00 0.00 16 1008.8
20260906221618 98 114 5.0 14.0 0.00 0.00 0.00 15 1008.8
20260906221117 98 131 4.0 11.0 0.00 0.00 0.00 15 1008.8
20260906220618 98 113 7.0 12.0 0.00 0.00 0.00 15 1008.8
20260906220120 98 128 6.0 10.0 0.00 0.00 0.00 13 1008.8
20260906215619 98 124 5.0 9.0 0.00 0.00 0.00 15 1008.8
20260906215116 98 351 5.0 12.0 0.00 0.00 0.00 15 1008.8
20260906214613 98 109 10.0 13.0 0.00 0.00 0.00 15 1008.8
20260906214107 98 111 10.0 14.0 0.00 0.00 0.00 15 1008.8
20260906213609 98 91 7.0 11.0 0.00 0.00 0.00 15 1008.8
20260906213111 98 72 6.0 13.0 0.00 0.00 0.00 13 1008.8
20260906212605 97 110 9.0 11.0 0.00 0.00 0.00 16 1008.8
20260906212107 98 132 3.0 6.0 0.00 0.00 0.00 15 1008.8
20260906211608 98 89 5.0 10.0 0.00 0.00 0.00 15 1008.8
20260906211107 98 132 6.0 12.0 0.00 0.00 0.00 15 1008.8
20260906210604 98 139 8.0 12.0 0.00 0.00 0.00 13 1008.8
20260906210106 98 123 5.0 7.0 0.00 0.00 0.00 15 1008.8
20260906205604 97 113 7.0 11.0 0.00 0.00 0.00 16 1008.8
20260906205106 96 104 10.0 15.0 0.00 0.00 0.00 16 1008.8
20260906204608 95 137 12.0 14.0 0.00 0.00 0.00 16 1009.8
20260906204106 97 133 6.0 11.0 0.00 0.00 0.00 16 1009.8
20260906203608 98 74 5.0 10.0 0.00 0.00 0.00 15 1009.8
20260906203110 97 182 10.0 14.0 0.00 0.00 0.00 16 1009.8
20260906202604 97 109 6.0 10.0 0.00 0.00 0.00 16 1009.8
20260906202106 98 148 6.0 11.0 0.00 0.00 0.00 15 1009.8
20260906201602 97 116 5.0 10.0 0.00 0.00 0.00 15 1009.8
20260906201101 97 129 0.0 7.0 0.00 0.00 0.00 16 1009.8
20260906200603 95 6 5.0 9.0 0.00 0.00 0.00 16 1009.8
20260906200105 98 67 4.0 14.0 0.00 0.00 0.00 15 1009.8
20260906195603 97 52 9.0 12.0 0.00 0.00 0.00 16 1009.8
20260906195105 97 171 6.0 15.0 0.00 0.00 0.00 16 1009.8
20260906194607 96 124 12.0 16.0 0.00 0.00 0.00 16 1009.8
20260906194106 97 116 3.0 10.0 0.00 0.00 0.00 16 1009.8
20260906193608 97 138 4.0 15.0 0.00 0.00 0.00 16 1009.8
20260906193105 95 132 8.0 15.0 0.00 0.00 0.00 17 1009.8
20260906192603 97 286 4.0 8.0 0.00 0.00 0.00 16 1009.8
20260906192105 96 104 7.0 12.0 0.00 0.00 0.00 16 1009.8
20260906191607 95 124 11.0 15.0 0.00 0.00 0.00 17 1009.8
20260906191105 97 154 0.0 8.0 0.00 0.00 0.00 16 1009.8
20260906190607 96 28 3.0 7.0 0.00 0.00 0.00 16 1009.8
20260906190109 95 42 4.0 9.0 0.00 0.00 0.00 17 1010.8
20260906185607 95 208 0.0 7.0 0.00 0.00 0.00 17 1010.8
20260906185109 95 208 5.0 12.0 0.00 0.00 0.00 17 1010.8
20260906184610 94 124 10.0 12.0 0.00 0.00 0.00 17 1010.8
20260906184109 95 122 8.0 13.0 0.00 0.00 0.00 17 1010.8
20260906183606 96 128 7.0 8.0 0.00 0.00 0.00 16 1010.8
20260906183107 94 111 3.0 12.0 0.00 0.00 0.00 17 1010.8
20260906182606 96 128 0.0 4.0 0.00 0.00 0.00 17 1010.8
20260906182108 94 110 0.0 10.0 0.00 0.00 0.00 17 1010.8
20260906181610 93 114 10.0 14.0 0.00 0.00 0.00 18 1010.8
20260906181108 94 107 6.0 10.0 0.00 0.00 0.00 17 1010.8
20260906180610 94 89 5.0 11.0 0.00 0.00 0.00 17 1010.8
20260906180112 95 126 4.0 11.0 0.00 0.00 0.00 17 1010.8
20260906175610 94 131 6.0 9.0 0.00 0.00 0.00 17 1010.8
20260906175112 94 122 4.0 12.0 0.00 0.00 0.00 17 1010.8
20260906174614 93 122 12.0 15.0 0.00 0.00 0.00 18 1011.8
20260906174113 93 100 5.0 10.0 0.00 0.00 0.00 18 1011.8
20260906173615 94 145 0.0 10.0 0.00 0.00 0.00 18 1011.8
20260906173116 93 125 7.0 13.0 0.00 0.00 0.00 18 1011.8
20260906172615 94 166 4.0 9.0 0.00 0.00 0.00 17 1011.8
20260906172117 94 128 7.0 10.0 0.00 0.00 0.00 18 1011.8
20260906171619 93 127 5.0 10.0 0.00 0.00 0.00 19 1011.8
20260906171112 94 133 0.0 10.0 0.00 0.00 0.00 19 1011.8
20260906170614 94 114 3.0 10.0 0.00 0.00 0.00 19 1011.8
20260906170116 93 119 6.0 9.0 0.00 0.00 0.00 19 1011.8
20260906165615 91 120 5.0 8.0 0.00 0.00 0.00 20 1011.8
20260906165116 92 114 6.0 9.0 0.00 0.00 0.00 21 1011.8
20260906164618 93 128 5.0 7.0 0.00 0.00 0.00 19 1011.8
20260906164117 93 277 4.0 7.0 0.00 0.00 0.00 19 1011.8
20260906163614 93 64 4.0 7.0 0.00 0.00 0.00 20 1011.8
20260906163116 91 337 3.0 5.0 0.00 0.00 0.00 21 1011.8
20260906162605 92 308 4.0 9.0 0.00 0.00 0.00 20 1011.8
20260906162102 92 122 4.0 9.0 0.00 0.00 0.00 22 1011.8
20260906161604 91 320 4.0 7.0 0.00 0.00 0.00 23 1011.8
20260906161103 90 131 5.0 8.0 0.00 0.00 0.00 25 1011.8
20260906160559 91 158 3.0 10.0 0.00 0.00 0.00 26 1011.8
20260906155600 89 86 6.0 7.0 0.00 0.00 0.00 27 1011.8
20260906155102 89 113 5.0 8.0 0.00 0.00 0.00 28 1011.8
20260906154604 89 136 4.0 7.0 0.00 0.00 0.00 28 1011.8
20260906154102 89 104 0.0 7.0 0.00 0.00 0.00 28 1011.8
20260906153604 89 140 0.0 7.0 0.00 0.00 0.00 29 1011.8
20260906153106 88 117 4.0 7.0 0.00 0.00 0.00 30 1011.8
20260906152605 88 123 5.0 7.0 0.00 0.00 0.00 30 1011.8
20260906152107 87 111 4.0 9.0 0.00 0.00 0.00 31 1011.8
20260906151608 87 127 4.0 6.0 0.00 0.00 0.00 31 1011.8
20260906151107 88 124 0.0 6.0 0.00 0.00 0.00 32 1011.8
20260906150609 87 117 3.0 5.0 0.00 0.00 0.00 33 1011.8
20260906150110 86 111 0.0 7.0 0.00 0.00 0.00 35 1011.8
20260906145609 86 119 5.0 6.0 0.00 0.00 0.00 33 1011.8
20260906145111 87 128 0.0 4.0 0.00 0.00 0.00 34 1011.8
20260906144613 86 128 0.0 6.0 0.00 0.00 0.00 35 1011.8
20260906144111 86 137 0.0 3.0 0.00 0.00 0.00 36 1011.8
20260906143613 86 137 0.0 4.0 0.00 0.00 0.00 37 1011.8
20260906143115 85 119 0.0 4.0 0.00 0.00 0.00 38 1011.8
20260906142614 85 118 0.0 3.0 0.00 0.00 0.00 40 1011.8
20260906142116 84 117 4.0 4.0 0.00 0.00 0.00 41 1011.8
20260906141617 84 116 0.0 3.0 0.00 0.00 0.00 42 1011.8
20260906141116 83 115 0.0 6.0 0.00 0.00 0.00 43 1011.8
20260906140618 83 121 3.0 4.0 0.00 0.00 0.00 43 1011.8
20260906140120 82 121 4.0 7.0 0.00 0.00 0.00 45 1011.8
20260906135618 83 125 0.0 6.0 0.00 0.00 0.00 45 1011.8
20260906135120 82 121 5.0 6.0 0.00 0.00 0.00 46 1011.8
20260906134622 82 119 4.0 5.0 0.00 0.00 0.00 47 1011.8
20260906134121 82 120 4.0 5.0 0.00 0.00 0.00 48 1011.8
20260906133623 82 118 0.0 4.0 0.00 0.00 0.00 50 1011.8
20260906133124 81 118 4.0 5.0 0.00 0.00 0.00 52 1011.8
20260906132623 81 118 4.0 7.0 0.00 0.00 0.00 52 1011.8
20260906132125 81 118 4.0 6.0 0.00 0.00 0.00 53 1011.8
20260906131627 80 118 0.0 5.0 0.00 0.00 0.00 55 1011.8
20260906131125 80 118 4.0 5.0 0.00 0.00 0.00 56 1011.8
20260906130627 80 118 4.0 6.0 0.00 0.00 0.00 57 1011.8
20260906130129 80 118 4.0 5.0 0.00 0.00 0.00 58 1011.8
20260906125628 79 117 3.0 5.0 0.00 0.00 0.00 58 1011.8
20260906125130 79 117 4.0 4.0 0.00 0.00 0.00 59 1011.8
20260906124631 79 118 0.0 4.0 0.00 0.00 0.00 60 1011.8
20260906124130 79 113 3.0 7.0 0.00 0.00 0.00 60 1011.8
20260906123618 79 114 6.0 7.0 0.00 0.00 0.00 60 1011.8
20260906123119 79 129 5.0 7.0 0.00 0.00 0.00 61 1011.8
20260906122618 79 115 5.0 6.0 0.00 0.00 0.00 61 1011.8
20260906122120 79 110 4.0 7.0 0.00 0.00 0.00 61 1011.8
20260906121622 79 118 6.0 6.0 0.00 0.00 0.00 60 1010.8
20260906121120 79 119 4.0 5.0 0.00 0.00 0.00 60 1010.8
20260906120622 79 119 4.0 5.0 0.00 0.00 0.00 60 1010.8
20260906120124 79 119 0.0 5.0 0.00 0.00 0.00 60 1010.8
20260906115623 79 119 3.0 5.0 0.00 0.00 0.00 60 1010.8
20260906115125 79 118 4.0 6.0 0.00 0.00 0.00 59 1010.8
20260906114626 79 119 0.0 5.0 0.00 0.00 0.00 58 1010.8
20260906114125 79 119 4.0 5.0 0.00 0.00 0.00 58 1010.8
20260906113627 79 119 5.0 6.0 0.00 0.00 0.00 57 1010.8
20260906113129 79 120 5.0 6.0 0.00 0.00 0.00 57 1010.8
20260906112628 79 122 5.0 6.0 0.00 0.00 0.00 56 1010.8
20260906112129 79 176 4.0 6.0 0.00 0.00 0.00 54 1010.8
20260906111631 80 176 5.0 5.0 0.00 0.00 0.00 54 1010.8
20260906111130 80 192 4.0 5.0 0.00 0.00 0.00 54 1010.8
20260906110632 79 200 3.0 4.0 0.00 0.00 0.00 56 1010.8
20260906110134 79 200 0.0 0.0 0.00 0.00 0.00 57 1010.8
20260906105632 79 200 0.0 3.0 0.00 0.00 0.00 57 1010.8
20260906105134 79 200 0.0 0.0 0.00 0.00 0.00 55 1010.8
20260906104636 80 201 0.0 0.0 0.00 0.00 0.00 53 1010.8
20260906104135 80 201 0.0 0.0 0.00 0.00 0.00 52 1010.8
20260906103636 80 201 0.0 0.0 0.00 0.00 0.00 51 1010.8
20260906103138 80 201 0.0 3.0 0.00 0.00 0.00 50 1010.8
20260906102637 80 201 0.0 3.0 0.00 0.00 0.00 49 1010.8
20260906102139 80 201 0.0 4.0 0.00 0.00 0.00 48 1010.8
20260906101641 80 201 0.0 3.0 0.00 0.00 0.00 48 1009.8
20260906101139 81 201 0.0 4.0 0.00 0.00 0.00 48 1009.8
20260906100641 81 202 3.0 4.0 0.00 0.00 0.00 48 1009.8
20260906100143 81 203 0.0 4.0 0.00 0.00 0.00 47 1009.8
20260906095642 81 203 0.0 4.0 0.00 0.00 0.00 47 1009.8
20260906095143 81 203 0.0 0.0 0.00 0.00 0.00 46 1009.8
20260906094645 81 203 0.0 4.0 0.00 0.00 0.00 46 1009.8
20260906094144 81 203 0.0 3.0 0.00 0.00 0.00 46 1009.8
20260906093646 81 203 0.0 0.0 0.00 0.00 0.00 45 1009.8
20260906093148 81 203 0.0 3.0 0.00 0.00 0.00 44 1009.8
20260906092646 81 203 0.0 3.0 0.00 0.00 0.00 44 1009.8
20260906092148 81 204 0.0 4.0 0.00 0.00 0.00 44 1009.8
20260906091650 81 217 0.0 4.0 0.00 0.00 0.00 44 1009.8
20260906091149 81 217 3.0 4.0 0.00 0.00 0.00 44 1009.8
20260906090650 81 217 0.0 5.0 0.00 0.00 0.00 44 1009.8
20260906090152 81 211 0.0 6.0 0.00 0.00 0.00 44 1009.8
20260906085651 82 194 3.0 4.0 0.00 0.00 0.00 43 1009.8
20260906085153 82 169 3.0 4.0 0.00 0.00 0.00 43 1009.8
20260906084655 82 188 3.0 5.0 0.00 0.00 0.00 43 1009.8
20260906084153 82 187 0.0 5.0 0.00 0.00 0.00 43 1009.8
20260906083655 82 189 3.0 4.0 0.00 0.00 0.00 42 1009.8
20260906083157 82 199 3.0 6.0 0.00 0.00 0.00 42 1009.8
20260906082656 82 169 4.0 6.0 0.00 0.00 0.00 42 1009.8
20260906082153 82 213 5.0 8.0 0.00 0.00 0.00 42 1009.8
20260906081654 83 217 6.0 7.0 0.00 0.00 0.00 41 1009.8
20260906081153 83 191 4.0 6.0 0.00 0.00 0.00 42 1009.8
20260906080655 83 220 0.0 6.0 0.00 0.00 0.00 42 1009.8
20260906080152 83 211 0.0 6.0 0.00 0.00 0.00 42 1009.8
20260906075645 83 216 4.0 7.0 0.00 0.00 0.00 42 1009.8
20260906075147 83 192 0.0 5.0 0.00 0.00 0.00 42 1009.8
20260906074649 83 181 3.0 4.0 0.00 0.00 0.00 42 1009.8
20260906074148 83 168 3.0 6.0 0.00 0.00 0.00 42 1009.8
20260906073650 83 189 3.0 6.0 0.00 0.00 0.00 42 1009.8
20260906073151 83 154 0.0 7.0 0.00 0.00 0.00 42 1009.8
20260906072650 83 190 4.0 7.0 0.00 0.00 0.00 42 1009.8
20260906072152 83 216 0.0 7.0 0.00 0.00 0.00 41 1009.8
20260906071654 83 156 4.0 6.0 0.00 0.00 0.00 41 1009.8
20260906071153 83 159 0.0 7.0 0.00 0.00 0.00 41 1009.8
20260906070654 83 175 4.0 7.0 0.00 0.00 0.00 40 1009.8
20260906070156 83 198 3.0 8.0 0.00 0.00 0.00 40 1009.8
20260906065655 84 170 4.0 7.0 0.00 0.00 0.00 40 1009.8
20260906065157 84 137 5.0 7.0 0.00 0.00 0.00 39 1009.8
20260906064658 84 210 4.0 7.0 0.00 0.00 0.00 39 1010.8
20260906064157 84 158 4.0 7.0 0.00 0.00 0.00 39 1010.8
20260906063659 84 172 4.0 7.0 0.00 0.00 0.00 39 1010.8
20260906063156 84 165 3.0 7.0 0.00 0.00 0.00 38 1010.8
20260906062654 84 186 4.0 6.0 0.00 0.00 0.00 38 1010.8
20260906062151 84 223 3.0 7.0 0.00 0.00 0.00 38 1010.8
20260906061653 85 187 4.0 6.0 0.00 0.00 0.00 37 1010.8
20260906061152 85 207 4.0 9.0 0.00 0.00 0.00 37 1010.8
20260906060654 85 154 4.0 5.0 0.00 0.00 0.00 36 1010.8
20260906060151 85 177 0.0 7.0 0.00 0.00 0.00 36 1010.8
20260906055649 85 139 4.0 6.0 0.00 0.00 0.00 35 1010.8
20260906055151 85 189 4.0 5.0 0.00 0.00 0.00 35 1010.8
20260906054653 85 190 3.0 5.0 0.00 0.00 0.00 34 1010.8
20260906054152 85 210 0.0 7.0 0.00 0.00 0.00 34 1010.8
20260906053648 85 212 4.0 8.0 0.00 0.00 0.00 34 1010.8
20260906053150 85 226 4.0 6.0 0.00 0.00 0.00 34 1010.8
20260906052649 85 194 0.0 4.0 0.00 0.00 0.00 34 1010.8
20260906052151 85 192 3.0 5.0 0.00 0.00 0.00 34 1010.8
20260906051653 86 177 4.0 7.0 0.00 0.00 0.00 34 1010.8
20260906051151 85 146 4.0 9.0 0.00 0.00 0.00 34 1010.8
20260906050653 86 195 3.0 7.0 0.00 0.00 0.00 33 1010.8
20260906050150 86 193 4.0 8.0 0.00 0.00 0.00 33 1010.8
20260906045644 86 188 3.0 6.0 0.00 0.00 0.00 33 1010.8
20260906045146 86 132 4.0 8.0 0.00 0.00 0.00 33 1010.8
20260906044647 86 133 4.0 7.0 0.00 0.00 0.00 33 1009.8
20260906044142 86 211 5.0 9.0 0.00 0.00 0.00 33 1009.8
20260906043643 86 190 3.0 6.0 0.00 0.00 0.00 33 1009.8
20260906043145 86 180 3.0 7.0 0.00 0.00 0.00 33 1009.8
20260906042644 86 133 4.0 6.0 0.00 0.00 0.00 33 1009.8
20260906042146 87 175 3.0 6.0 0.00 0.00 0.00 33 1009.8
20260906041643 87 190 3.0 6.0 0.00 0.00 0.00 33 1009.8
20260906041142 87 148 4.0 9.0 0.00 0.00 0.00 33 1009.8
20260906040644 87 124 5.0 9.0 0.00 0.00 0.00 33 1009.8
20260906040146 87 126 4.0 10.0 0.00 0.00 0.00 33 1009.8
20260906035644 87 135 7.0 10.0 0.00 0.00 0.00 32 1009.8
20260906035146 87 128 6.0 9.0 0.00 0.00 0.00 32 1009.8
20260906034648 87 136 6.0 9.0 0.00 0.00 0.00 32 1009.8
20260906034147 87 127 6.0 11.0 0.00 0.00 0.00 32 1009.8
20260906033648 87 102 7.0 13.0 0.00 0.00 0.00 32 1009.8
20260906033150 87 120 8.0 10.0 0.00 0.00 0.00 31 1009.8
20260906032649 87 131 7.0 10.0 0.00 0.00 0.00 31 1009.8
20260906032151 87 143 7.0 11.0 0.00 0.00 0.00 31 1009.8
20260906031653 87 136 7.0 10.0 0.00 0.00 0.00 30 1009.8
20260906031151 87 146 8.0 11.0 0.00 0.00 0.00 30 1009.8
20260906030653 88 125 9.0 10.0 0.00 0.00 0.00 30 1009.8
20260906030155 88 123 7.0 12.0 0.00 0.00 0.00 30 1009.8
20260906025654 88 125 9.0 12.0 0.00 0.00 0.00 30 1009.8
20260906025155 88 134 8.0 11.0 0.00 0.00 0.00 29 1009.8
20260906024652 88 126 7.0 12.0 0.00 0.00 0.00 29 1009.8
20260906024151 88 120 6.0 12.0 0.00 0.00 0.00 29 1009.8
20260906023653 88 96 9.0 10.0 0.00 0.00 0.00 29 1009.8
20260906023155 89 105 7.0 12.0 0.00 0.00 0.00 27 1009.8
20260906022648 89 113 8.0 10.0 0.00 0.00 0.00 27 1009.8
20260906022150 89 130 7.0 11.0 0.00 0.00 0.00 27 1009.8
20260906021652 89 129 8.0 15.0 0.00 0.00 0.00 26 1009.8
20260906021151 89 111 7.0 12.0 0.00 0.00 0.00 25 1009.8
20260906020652 90 119 9.0 13.0 0.00 0.00 0.00 23 1009.8
20260906020154 90 117 8.0 14.0 0.00 0.00 0.00 22 1008.8
20260906015653 90 137 9.0 12.0 0.00 0.00 0.00 21 1008.8
20260906015155 90 116 10.0 12.0 0.00 0.00 0.00 21 1008.8
20260906014657 90 125 10.0 11.0 0.00 0.00 0.00 20 1008.8
20260906014155 90 114 9.0 15.0 0.00 0.00 0.00 20 1008.8
20260906013657 91 133 11.0 17.0 0.00 0.00 0.00 19 1008.8
20260906013159 91 118 13.0 19.0 0.00 0.00 0.00 19 1008.8
20260906012658 92 127 11.0 21.0 0.00 0.00 0.00 18 1008.8
20260906012159 92 146 16.0 19.0 0.00 0.00 0.00 17 1008.8
20260906011651 94 128 10.0 10.0 0.00 0.00 0.00 16 1008.8
20260906011150 95 121 8.0 10.0 0.00 0.00 0.00 16 1008.8
20260906010652 95 107 5.0 13.0 0.00 0.00 0.00 16 1008.8
20260906010153 95 112 10.0 12.0 0.00 0.00 0.00 16 1008.8
20260906005652 95 105 9.0 12.0 0.00 0.00 0.00 16 1008.8
20260906005154 95 124 7.0 12.0 0.00 0.00 0.00 14 1008.8
20260906004650 96 122 7.0 12.0 0.00 0.00 0.00 13 1008.8
20260906004147 96 114 10.0 10.0 0.00 0.00 0.00 13 1008.8
20260906003649 96 123 7.0 11.0 0.00 0.00 0.00 13 1008.8
20260906003150 96 116 7.0 10.0 0.00 0.00 0.00 13 1007.8
20260906002649 96 121 6.0 10.0 0.00 0.00 0.00 13 1007.8
20260906002151 97 139 7.0 8.0 0.00 0.00 0.00 13 1007.8
20260906001653 96 119 7.0 10.0 0.00 0.00 0.00 13 1007.8
20260906001151 97 113 8.0 11.0 0.00 0.00 0.00 13 1007.8
20260906000648 97 112 8.0 12.0 0.00 0.00 0.00 13 1007.8
20260906000150 97 128 9.0 11.0 0.00 0.00 0.00 13 1007.8
20260905235649 97 98 7.0 8.0 0.00 0.00 0.00 13 1007.8
20260905235150 97 127 5.0 10.0 0.00 0.00 0.00 13 1007.8
20260905234643 97 116 7.0 9.0 0.00 0.00 0.00 13 1007.8
20260905234141 97 124 4.0 8.0 0.00 0.00 0.00 13 1007.8
20260905233643 98 124 5.0 6.0 0.00 0.00 0.00 13 1007.8
20260905233145 98 133 4.0 6.0 0.00 0.00 0.00 13 1007.8
20260905232644 98 193 4.0 7.0 0.00 0.00 0.00 13 1007.8
20260905232146 98 132 5.0 11.0 0.00 0.00 0.00 13 1007.8
20260905231647 97 133 9.0 7.0 0.00 0.00 0.00 13 1007.8
20260905231146 98 164 5.0 8.0 0.00 0.00 0.00 13 1007.8
20260905230648 98 143 0.0 6.0 0.00 0.00 0.00 13 1007.8